MST,Max TemperatureF,Mean TemperatureF,Min TemperatureF,Max Dew PointF,MeanDew PointF,Min DewpointF,Max Humidity, Mean Humidity, Min Humidity, Max Sea Level PressureIn, Mean Sea Level PressureIn, Min Sea Level PressureIn, Max VisibilityMiles, Mean VisibilityMiles, Min VisibilityMiles, Max Wind SpeedMPH, Mean Wind SpeedMPH, Max Gust SpeedMPH,PrecipitationIn, CloudCover, Events, WindDirDegrees
2013-11-1,60,52,44,37,33,28,65,47,29,30.28,30.21,30.12,10,10,10,13,5,16,0.00,3,,355
2013-11-2,71,55,39,37,28,17,70,42,13,30.18,29.92,29.64,10,10,10,24,11,33,0.00,2,,153
2013-11-3,56,46,35,32,28,20,89,65,41,30.05,29.91,29.65,10,7,0,24,9,31,0.13,6,Fog-Rain-Snow,311
2013-11-4,44,38,32,28,23,17,69,53,36,30.13,30.05,30.00,10,8,2,12,4,14,0.00,6,Snow,111
2013-11-5,42,37,31,29,24,15,85,61,36,30.37,30.26,30.13,10,7,0,10,3,12,0.15,6,Snow,133
2013-11-6,55,46,36,27,23,20,54,40,26,30.43,30.39,30.34,10,10,10,17,9,22,0.00,6,,150
2013-11-7,60,50,40,36,28,23,59,44,28,30.38,30.18,29.91,10,10,10,17,10,22,0.00,5,,154
2013-11-8,62,54,46,33,28,20,46,35,23,30.03,29.98,29.91,10,10,10,24,9,32,0.00,5,,297
2013-11-9,62,49,35,38,33,27,76,54,31,30.19,30.14,30.04,10,10,10,9,3,10,0.00,4,,175
2013-11-10,65,50,35,38,32,27,76,50,24,30.27,30.22,30.17,10,10,10,9,4,10,0.00,1,,168
2013-11-11,64,49,34,36,32,27,76,52,28,30.37,30.31,30.21,10,10,7,10,3,13,0.00,1,,215
2013-11-12,67,52,36,36,31,27,76,51,26,30.46,30.38,30.31,10,10,9,13,3,15,0.00,3,,171
2013-11-13,60,48,36,36,33,28,79,56,33,30.30,30.24,30.17,10,10,8,12,4,14,0.00,5,,280
2013-11-14,60,47,33,33,29,22,82,53,24,30.21,30.00,29.69,10,10,10,20,7,24,0.00,3,,166
2013-11-15,45,39,33,34,32,26,85,72,58,29.79,29.74,29.67,10,10,8,18,8,22,0.01,7,Rain-Snow,345
2013-11-16,43,39,34,34,32,26,79,66,53,29.81,29.64,29.55,10,8,3,21,11,25,0.14,8,Rain,155
2013-11-17,55,46,36,34,30,26,89,64,38,30.10,30.00,29.84,10,10,9,12,6,15,T,4,Rain,144
2013-11-18,63,50,36,35,29,23,70,48,25,30.16,30.05,29.87,10,10,10,18,9,22,0.00,3,,155
2013-11-19,55,51,47,41,34,27,77,56,35,29.88,29.86,29.83,10,10,10,20,5,24,0.01,7,Rain,162
2013-11-20,54,49,43,41,38,35,82,66,50,29.88,29.82,29.75,10,10,8,17,7,22,0.08,7,Rain,162
2013-11-21,43,40,36,37,30,5,89,62,35,30.30,30.07,29.86,10,9,2,24,10,36,0.09,7,Rain-Snow,277
2013-11-22,42,37,31,19,12,4,43,34,24,30.38,30.32,30.28,10,10,10,24,9,31,0.00,4,,119
2013-11-23,51,37,23,22,14,8,60,40,19,30.33,30.22,30.12,10,10,10,12,3,16,0.00,5,,205
2013-11-24,49,43,36,28,25,23,59,51,42,30.25,30.16,30.11,10,10,10,13,4,16,0.00,3,,310
2013-11-25,48,39,29,29,25,20,75,60,45,30.45,30.37,30.24,10,10,10,9,4,12,0.00,1,,173
2013-11-26,51,40,29,29,26,22,72,56,39,30.48,30.40,30.30,10,10,10,9,4,12,0.00,1,,150
2013-11-27,52,41,29,33,28,23,78,60,41,30.28,30.18,30.10,10,10,10,9,2,12,0.00,4,,222
2013-11-28,49,40,30,33,29,25,82,66,50,30.18,30.13,30.09,10,10,7,7,2,9,0.00,4,,300
2013-11-29,53,42,30,36,30,25,85,62,38,30.30,30.25,30.19,10,8,6,9,3,12,0.00,2,,337
2013-11-30,54,42,30,32,28,23,82,60,38,30.34,30.30,30.24,10,8,5,9,5,12,0.00,3,,132